FENGYUN 1C DEB

Satellite information

Favourite Embed

Satellite Type and Status

DEBRISIN ORBIT

Key statistics

Satellite FENGYUN 1C DEB at a glance.

Uptime

9556

Days in orbit

Revolutions

≈ 13.9

Per day

Orbit

SSO

Sun Synchronous Orbit

Inclination

98.0

Latest

Satellite identification and parameters

Extended collection of information and parameters for FENGYUN 1C DEB.

Object identification

Identified? True

Debris? True

Object name: FENGYUN 1C DEB

International designator: 1999-025DBY

Object number (NORAD): 32460

Object ID (CCSDS): 32460

Country: PEOPLES REPUBLIC OF CHINA (PRC)

Current information (Y/N): Y

RCS size: SMALL

Orbital parameters

Period: 103.67 minutes

Inclination: 98.0041 deg

SMA: 7310.211 km

Apoapsis: 1067.532 km

Periapsis: 796.62 km

RAAN: 349.8847 deg

Eccentricy: 0.0185297

Argument of periapsis: 224.0 deg

Mean anomaly: 134.6285 deg

Mean motion: 13.8901806 rev/day

Mean motion (dot): 0.00001324 rev/day2

B* drag term: 0.00097773 1/REarth

Two-line elements (TLE)

Creation date: July 1, 2025, 6:46 a.m.

Reference frame: TEME

Reference center: EARTH

Epoch: June 30, 2025, 10:15 p.m. UTC

TLE line 0: 0 FENGYUN 1C DEB

TLE line 1: 1 32460U 99025DBY 25181.92719715 .00001324 00000-0 97773-3 0 9994

TLE line 2: 2 32460 98.0041 349.8847 0185297 224.0000 134.6285 13.89018060910018

Live tracking on map

Real-time ground track for satellite FENGYUN 1C DEB.

In-orbit conjunctions

A list of the most updated potential collisions computed for object FENGYUN 1C DEB.

Target Orbit TCA Probability of collision Miss distance Type
CZ-6A DEB LEO 2024-11-17 04:36:50 0.0004372681 188.0 (m) DEBRIS

Associated space launch

Chinese polar orbiting meteorological satellite

FENGYUN 1C DEB was lifted into orbit during the mission ‘Long March 4B | Feng Yun 1C’, on board a Long March 4B space rocket.

The launch took place on May 10, 1999, 1:33 a.m. from Launch Complex 7.

For more information about the launch, click the button.

Launch to space Long March 4B | Feng Yun 1C
Long March 4B | Feng Yun 1C

Agency: N/A

Status: Launch Successful

Launch date: May 10, 1999, 1:33 a.m. UTC

Rocket: Long March 4B

Launch pad: Launch Complex 7

Location: Taiyuan Satellite Launch Center, People's Republic of China

...

Latest news about this satellite

There are no fresh news available about this satellite. Check back as we update our databases every day.


Newsletter sign-up

Weekly statistics, charts and insights to help you stay on top of the space industry.